Find Starlink 34736

NORAD ID: 64846 Int'l Des: 2025-152 Owner: SPXS Country: US Constellation: starlink operational
LEOCIRCULARRETROGRADESSO

实时位置

正在加载3D地球...

关于 Starlink 34736

正在加载描述...

即将过境

Passes for default location (London). Set your location on the main map for personalized predictions.

高度历史

Loading altitude history...

两行轨道根数

1 64846U 25152E 26120.15905390 .00007267 00000-0 50703-3 0 9996
2 64846 97.5546 336.2134 0001837 97.8331 262.3104 15.05669401 43167
Epoch: Apr 30, 2026 • Age: 12 hours

当前状态

高度 553.2 km
速度 7.59 km/s
星下点 34.05°N, 68.81°E
发射日期 Jul 19, 2025
运行时间 0.7 years
类型 internet

技术详情

分类 Payload
质量 575.00 kg
干质量 530.00 kg
总质量 575.00 kg
长度 0.30 m
直径 4.10 m
跨度 29.00 m
形状 Box + pan
制造商 SPXS
平台类型 Starlink V2MO
阶段状态 In Orbit
所有者/国家 SPXS/US

Most Searched